sat.trackr.live / text

‹ back to catalog

STARLINK-5808

NORAD 56927 · 2023-083BD

PAYLOAD ACTIVE UNKNOWN

§ Identity

Operator
Country
US
Launch date
2023-06-12
Launch site
AFETR
Launch vehicle
Mass (kg)
RCS (m²)

Purposes: comms

External: N2YO · Heavens-Above · Gunter

§ Orbital elements

Epoch: 2026-05-25T01:10:20.432640Z

Period
94.27 min
Inclination
43.0015°
Eccentricity
0.0001105
Mean motion
15.27576598 rev/d
Perigee alt
482.3 km
Apogee alt
483.8 km
Semi-major
6,861.2 km
B*
-2.0016e-5
RAAN
268.5149°
Arg perigee
270.7542°
Mean anomaly
89.3183°
Rev number
16,452

§ Raw data

STARLINK-58081 56927U 23083BD  26145.04884760 -.00000813  00000+0 -20016-4 0  99962 56927  43.0015 268.5149 0001105 270.7542  89.3183 15.27576598164528

JSON: /api/v1/satellites/56927 · /tle

For live sub-satellite position, see the globe view (requires WebGL).

§ Visibility from observer

Set your observer location to see the next 7 days of passes ≥ 10°. The values pass through the URL so the page stays shareable.

No JS? Fill the form by hand. The geolocation button needs JavaScript.